Starlink 31853

operational
NORAD ID: 59933 Int'l Des: 2024-106 Owner: SPXS Country: US Constellation: starlink
LEOCIRCULAR

Über Starlink 31853

Beschreibung wird geladen...

Live-Position

3D-Globus wird geladen...

Nächste Überflüge

Höhenverlauf

Altitude vs Time

uPlot chart will show altitude changes over time

Zweizeiliger Elementsatz

1 59933U 24106M 25257.34914003 -.00001208 00000-0 -34415-4 0 9991
2 59933 43.0026 248.4130 0001169 276.4993 83.5726 15.27557603 73557
Epoch: 14. Sept. 2025 • Age: 26 hours

Aktueller Status

Höhe 487.1 km
Geschwindigkeit 7.63 km/s
Subsatellitenpunkt 43.13°N, 168.05°W
Startdatum 1. Juni 2024
Alter 1.2 years
Typ internet

Technische Details

Klassifizierung Payload
Masse 730.00 kg
Trockenmasse 700.00 kg
Gesamtmasse 730.00 kg
Länge 0.30 m
Durchmesser 4.10 m
Spannweite 29.00 m
Form Box + pan
Hersteller SPXS
Bus-Typ Starlink V2M
Phasenstatus In Orbit
Besitzer/Staat SPXS/US

Große Konstellationen

Loading constellations...